Showing default

ZHUHAI-1 OVS-02, 43440

Orbit data source: Space-Track

ZHUHAI-1 OVS-02, 43440 is a payload satellite owned by Zhuhai Orbita (CN) in SSO that was launched on Thu, 26 Apr 2018 UTC via a CHANG ZHENG 11 launch vehicle from the Jiuquan Satellite Launch Center, China (JSC). Payload-class satellites include a variety of spacecraft equipped with specific instruments for various scientific and technological missions. These include communications satellites like Starlink; space stations such as the ISS; scientific satellites like the Hubble; Earth observation satellites from companies like Planet Labs, Umbra, and HawkEye 360; GPS; miniature CubeSats for education and research; and military/defense satellites.

Loading next visibility...
Identifier
43440, 2018-040B
Orbit
SSO
Last TLE update
2 hours ago
Origin
Manufacturer
Harbin
Mission
Operational Commercial Imaging
Bus & Motor
OVS-1, Unknown motor
Mass
95 kg wet, 95 kg dry
Launch date (UTC)
2018-04-26 (7 years ago)
Launch vehicle
CHANG ZHENG 11
Launch site
Jiuquan Satellite Launch Center, China (JSC)
Object type
Payload
Rocket body
Debris
Shape & HBR
Box, 1 m
Radar Cross Section
0.375 m², Medium (>0.1 m² and < 1m²)

Expand to show TLE details & history

TLE from 2 hours ago
0 ZHUHAI-1 OVS-02
1 43440U 18040B   25129.20662716  .00007931  00000-0  38366-3 0  9996
2 43440  97.0757 166.2611 0002682 221.2492 138.8541 15.18836117391278
Epoch: 2025-05-09T04:57Z
Definitive object data (Epoch: 2025-05-09T04:57:32.586Z)
Latitude
-0.00004°
Longitude
-135.39076°
Altitude
513.846 km
Speed
7.606 km/s
True Right ascension
11h 05m 02s
True Declination
0° 00' 00"
Sunlit
Object was in full shadow at TLE epoch
Visualization TLE readout
Latitude
56.63418°
Longitude
55.49624°
Altitude
519.138 km
Speed
7.609 km/s
Apparent Right ascension
01h 44m 59s
Apparent Declination
11° 58' 21"
Sunlit
Object is in daylight
Visualization observer readout
Local Sidereal Time
15:13:41
Azimuth
26.505° NE
Elevation
-34.173°
Doppler factor
1
Orbital elements
Apogee altitude
508.157 km
Perigee altitude
504.464 km
Semi-major axis
6,884.448 km
Eccentricity
0.0002682
Inclination
97.0757°
RAAN
166.2611°
Arg. of periapsis
221.2492°
True anomaly
138.87432°
Mean anomaly
138.8541°
Eccentric anomaly
138.86421°
Mean motion
3.79961 °/min
BSTAR
0.00038366
Orbital period
94.75 mins
Loading maneuver chart data...
Loading SW <> Apogee altitude chart data...
Loading historical data...
Loading historical data...
Loading historical data...
Loading historical data...
Loading historical data...
Loading historical data...
Loading historical data...

ZHUHAI-1 OVS-02 Visibility forecast

Observer location: undefined°, undefined°

Span
Click to sort rows by Start time (UTC) header in descending order
Start Az.
Max El. time (UTC)
Max El. Az.
Max El.
End time (UTC)
End Az.
6 mins2025-05-09 15:00:45.310Z24.188° NE2025-05-09 15:03:45.310Z101.946° ESE38.633°2025-05-09 15:06:45.310Z175.052° S
4 mins2025-05-10 01:40:45.310Z99.483° ESE2025-05-10 01:41:45.310Z78.928° E18.982°2025-05-10 01:44:45.310Z22.866° NE
4 mins2025-05-10 03:14:45.310Z235.131° WSW2025-05-10 03:15:45.310Z258.836° W21.9°2025-05-10 03:18:45.310Z317.472° NNW
|